Regional Weather Roundup
Issued by NWS State College, PA

Home | Current Version | Previous Version | Graphics & Text | Print | Product List | Glossary On
Versions: 1 2 3 4 5 6 7 8 9 10 11 12 13 14 15 16 17 18 19 20 21 22 23 24 25 26 27 28 29 30 31 32 33 34 35 36 37 38 39 40 41 42 43 44 45 46 47 48 49 50
000
ASUS41 KCTP 211903
RWRCTP

REGIONAL WEATHER ROUNDUP
NATIONAL WEATHER SERVICE STATE COLLEGE PA
200 PM EST TUE NOV 21 2017

Note: "fair" indicates few or no clouds below 12,000 feet with no
significant weather and/or obstructions to visibility.

* = STATION THAT DOES NOT REPORT PRECIPITATION /E.G. RAIN...SNOW...ETC/
    THUNDER OR FOG.

PAZ002>004-007>009-013>016-020>023-029>032-212000-
WESTERN PENNSYLVANIA

CITY           SKY/WX    TMP DP  RH WIND       PRES   REMARKS
ERIE           SUNNY     54  28  36 S24G36    29.78F
MEADVILLE      SUNNY     51  27  39 SW20G33   29.83S
FRANKLIN*      SUNNY     52  25  35 S23G33    29.84S
NEW CASTLE     FAIR      55  26  32 S12G23    29.86F
BEAVER COUNTY  SUNNY     54  28  37 S15G24    29.88S
BUTLER*        SUNNY     53  27  36 SW16G26   29.89F
PITTSBURGH INT PTSUNNY   54  26  34 SW21G28   29.89F
PITTSBURGH     SUNNY     54  24  31 SW20G28   29.90F
INDIANA*       SUNNY     55  30  38 SW14G22   29.93F
LATROBE        PTSUNNY   55  27  33 SW23G35   29.93F
WASHINGTON CO* CLOUDY    55  26  32 SW22G29   29.93F
$$

PAZ004>006-010>012-017>019-024>028-033>037-041-042-045-046-049>053-212000-
CENTRAL PENNSYLVANIA

CITY           SKY/WX    TMP DP  RH WIND       PRES   REMARKS
BRADFORD       SUNNY     50  26  39 SW15G32   29.82F
DUBOIS         SUNNY     52  25  35 SW16      29.86F
CLEARFIELD     SUNNY     54  24  31 SW13G26   29.89F
JOHNSTOWN      SUNNY     52  25  35 SW13G22   29.91F
ALTOONA        MOSUNNY   57  25  29 SW16G24   29.92F
STATE COLLEGE  SUNNY     54  27  35 SW13G21   29.91F
WILLIAMSPORT   CLOUDY    55  28  35 S8        29.91F
SELINSGROVE    SUNNY     54  27  35 SW8G17    29.96F
FT INDIANTOWN  PTSUNNY   55  29  37 S10       30.00F
CAPITAL CITY   SUNNY     56  25  30 SW10      30.00F
HARRISBURG     MOSUNNY   56  29  35 S13G21    29.99F
YORK           MOSUNNY   55  29  36 SW8       30.00F
$$

PAZ038>040-043-044-047-048-054-055-060>062-067>071-212000-
EASTERN PENNSYLVANIA

CITY           SKY/WX    TMP DP  RH WIND       PRES   REMARKS
SCRANTON       SUNNY     57  21  24 SW16G30   29.93F
MOUNT POCONO   SUNNY     48  23  37 SW16G25   29.97F
ALLENTOWN      SUNNY     58  30  34 S8        30.00F
QUAKERTOWN*    CLEAR     55  30  38 S7        30.02F
READING        SUNNY     55  32  41 SW7       30.00F
LANCASTER      MOSUNNY   54  32  43 S10       30.01F
COATESVILLE    PTCLDY    52  30  43 S8G18     30.04S
POTTSTOWN      SUNNY     55  30  38 S8        30.04F
BLUE BELL      MOSUNNY   54  30  40 S10G16    30.04F
DOYLESTOWN     SUNNY     55  30  38 S8        30.01F
WILLOW GROVE   NOT AVBL
NORTH PHILA    MOSUNNY   58  30  34 SW9G17    30.05F
PHILADELPHIA   PTSUNNY   58  28  32 SW13      30.04F
$$




USA.gov is the U.S. government's official web portal to all federal, state and local government web resources and services.